Volver al catálogo

STARLINK-35711

ActivoComunicacionesVLEO
NORAD 66595·PAYLOAD·🇺🇸 United States

Lanzado Nov 22, 2025 desde Cape Canaveral Space Force Station

Loading…

Próximos Pases (próximas 24 horas)

TLE

ActualizadoSource: CelesTrak SupGP

Época: Sep 15, 2026, 02:53 UTC

1 66595C 25270H   26258.12062500 -.00022205  00000+0 -80345-3 0  2589
2 66595  43.0005  66.2248 0001823 272.5701 263.5815 15.27622464    11

Sigue STARLINK-35711 en tiempo real con AllMySat

Download on the App Store